World > North America > United States > South Carolina > Ridgeville

Ridgeville, SC Hourly Weather Conditions

Feedback E-mail the Weather

Quick WX

Ridgeville, SC Weather Maps

°F °C°F °C
Ridgeville Weather Map
UTC Time: 2/5/2023, 17:21
Your Time:

Ridgeville, SC Regional Weather

Expires:202302051800;;847965
ASUS42 KCHS 051710
RWRCHS

Regional Weather Roundup
National Weather Service Charleston SC
1200 PM EST SUN FEB 05 2023

NOTE: "fair" indicates few or no clouds below 12,000 feet with no
significant weather and/or obstructions to visibility.

Not all stations are quality controlled. Use data with caution,
especially dewpoint observations.


SCZ027-030-031-034>040-042>050-051800-
...Southeast South Carolina...
  
CITY           SKY/WX    TMP DP  RH WIND       PRES   REMARKS
N Charleston   CLOUDY    53  50  89 NE6       30.29F                  
Waterfront Prk   N/A     49  48  96 N8        30.16F                  
Mount Pleasant LGT RAIN  50  50 100 CALM      30.28F                  
Johns Island   LGT RAIN  52  52 100 NE8       30.28F                  
Pinopolis        N/A     46  46 100 E7          N/A                   
Moncks Corner    N/A     50  50 100 E6        30.29F                  
Summerville    CLOUDY    52  52 100 NW5       30.29F                  
Beaufort MCAS  NOT AVBL                                               
Beaufort Arpt  CLOUDY    55  52  88 NE6       30.28F                  
Hilton Head Is CLOUDY    59  54  82 NE9       30.29F                  
Walterboro     CLOUDY    59  50  72 NE6       30.29F                  
Allendale      PTSUNNY   52  41  66 CALM      30.29F                  

...Southern Midlands and Pee Dee...
  
CITY           SKY/WX    TMP DP  RH WIND       PRES   REMARKS
Georgetown     LGT RAIN  50  48  93 N5        30.30F VSB 1            
Kingstree      LGT RAIN  45  45 100 E3        30.31F                  
Orangeburg     CLOUDY    50  39  66 NE3       30.30F                  
Barnwell       FAIR      50  37  62 NE6       30.30F                  
Aiken          PTSUNNY   51  38  60 E5        30.31F                  
Manning        CLOUDY    46  45  93 N5        30.30F                  
Columbia       CLOUDY    49  32  52 N3        30.32F                  
Sumter         CLOUDY    49  34  57 NE6       30.29F                  
Florence       LGT RAIN  44  43  96 NE3       30.32F FOG              
Myrtle Beach   LGT RAIN  51  50  96 N9        30.29F                  
N Myrtle Beach LGT RAIN  52  44  74 N6        30.29F                  

$$
 

SKY/WX - Weather  TMP - Temperature  DP - Dew Point  RH - Humidity
WIND - Wind Direction/Speed PRES - Barometric Pressure VSB - Visibility
WCI - Wind Chill Index E13G22 Wind - East Wind 13 mph/Gusts of 22 mph

Trending Headlines

Trending Entertainment Headlines

Ridgeville Radar Loop

Use the map search tool if you want to place a location marker on the radar map...

Ridgeville Quick Facts

National Two Day Weather Forecast


E-mail the Ridgeville Weather Forecast

Voice your opinion or tell us about page issues...